Time,TemperatureF,DewpointF,PressureIn,WindDirection,WindDirectionDegrees,WindSpeedMPH,WindSpeedGustMPH,Humidity,HourlyPrecipIn,Conditions,Clouds,dailyrainin,SoftwareType,DateUTC
2014-09-19 00:02:00,72.4,63.6,30.05,ENE,68,1.0,1.0,74,0.00,,,0.00,WeatherCatV1.14B232,2014-09-19 04:02:00,
2014-09-19 00:07:00,72.4,63.2,30.05,ENE,76,0.0,1.0,73,0.00,,,0.00,WeatherCatV1.14B232,2014-09-19 04:07:00,
2014-09-19 00:12:00,72.4,62.8,30.05,NE,41,0.0,3.0,72,0.00,,,0.00,WeatherCatV1.14B232,2014-09-19 04:12:00,
2014-09-19 00:17:00,72.3,62.8,30.05,NE,44,1.0,2.0,72,0.00,,,0.00,WeatherCatV1.14B232,2014-09-19 04:17:00,
2014-09-19 00:22:00,72.0,63.2,30.05,ENE,59,2.0,4.0,74,0.00,,,0.00,WeatherCatV1.14B232,2014-09-19 04:22:00,
2014-09-19 00:27:00,71.6,63.6,30.05,NNE,28,2.0,2.0,76,0.00,,,0.00,WeatherCatV1.14B232,2014-09-19 04:27:00,
2014-09-19 00:32:00,71.3,63.3,30.05,NE,34,3.0,4.0,76,0.00,,,0.00,WeatherCatV1.14B232,2014-09-19 04:32:00,
2014-09-19 00:37:00,71.0,63.4,30.05,NE,41,3.0,6.0,77,0.00,,,0.00,WeatherCatV1.14B232,2014-09-19 04:37:00,
2014-09-19 00:42:00,70.7,63.1,30.05,NNW,347,2.0,4.0,77,0.00,,,0.00,WeatherCatV1.14B232,2014-09-19 04:42:00,
2014-09-19 00:47:00,70.4,63.6,30.05,NNW,345,2.0,2.0,79,0.00,,,0.00,WeatherCatV1.14B232,2014-09-19 04:47:00,
2014-09-19 00:52:00,70.0,63.5,30.05,NNW,340,3.0,3.0,80,0.00,,,0.00,WeatherCatV1.14B232,2014-09-19 04:52:00,
2014-09-19 00:57:00,69.6,63.1,30.05,North,355,3.0,4.0,80,0.00,,,0.00,WeatherCatV1.14B232,2014-09-19 04:57:00,
2014-09-19 01:02:00,69.2,62.8,30.05,North,7,3.0,3.0,80,0.00,,,0.00,WeatherCatV1.14B232,2014-09-19 05:02:00,
2014-09-19 01:07:00,68.9,62.8,30.05,NNW,345,2.0,3.0,81,0.00,,,0.00,WeatherCatV1.14B232,2014-09-19 05:07:00,
2014-09-19 01:12:00,68.5,63.1,30.05,North,355,3.0,3.0,83,0.00,,,0.00,WeatherCatV1.14B232,2014-09-19 05:12:00,
2014-09-19 01:18:00,67.9,62.5,30.05,North,8,2.0,3.0,83,0.00,,,0.00,WeatherCatV1.14B232,2014-09-19 05:18:00,
2014-09-19 01:23:00,67.5,62.5,30.05,North,4,2.0,3.0,84,0.00,,,0.00,WeatherCatV1.14B232,2014-09-19 05:23:00,
2014-09-19 01:28:00,67.2,62.5,30.05,North,357,2.0,3.0,85,0.00,,,0.00,WeatherCatV1.14B232,2014-09-19 05:28:00,
2014-09-19 01:33:00,67.2,62.5,30.05,North,349,0.0,1.0,85,0.00,,,0.00,WeatherCatV1.14B232,2014-09-19 05:33:00,
2014-09-19 01:38:00,67.3,63.0,30.05,North,352,1.0,1.0,86,0.00,,,0.00,WeatherCatV1.14B232,2014-09-19 05:38:00,
2014-09-19 01:43:00,67.2,63.2,30.06,NNW,331,0.0,1.0,87,0.00,,,0.00,WeatherCatV1.14B232,2014-09-19 05:43:00,
2014-09-19 01:48:00,66.7,63.0,30.06,NNW,330,0.0,0.0,88,0.00,,,0.00,WeatherCatV1.14B232,2014-09-19 05:48:00,
2014-09-19 01:53:00,66.2,62.9,30.05,NNW,330,0.0,1.0,89,0.00,,,0.00,WeatherCatV1.14B232,2014-09-19 05:53:00,
2014-09-19 01:58:00,65.8,62.5,30.06,NNW,330,0.0,1.0,89,0.00,,,0.00,WeatherCatV1.14B232,2014-09-19 05:58:00,
2014-09-19 02:03:00,65.6,62.6,30.06,NNW,330,0.0,0.0,90,0.00,,,0.00,WeatherCatV1.14B232,2014-09-19 06:03:00,
2014-09-19 02:08:00,65.5,62.8,30.06,NNW,330,0.0,0.0,91,0.00,,,0.00,WeatherCatV1.14B232,2014-09-19 06:08:00,
2014-09-19 02:13:00,65.4,62.7,30.05,NNW,345,0.0,1.0,91,0.00,,,0.00,WeatherCatV1.14B232,2014-09-19 06:13:00,
2014-09-19 02:18:00,65.5,63.1,30.05,NNW,327,1.0,2.0,92,0.00,,,0.00,WeatherCatV1.14B232,2014-09-19 06:18:00,
2014-09-19 02:23:00,65.8,62.5,30.05,North,5,2.0,2.0,89,0.00,,,0.00,WeatherCatV1.14B232,2014-09-19 06:23:00,
2014-09-19 02:28:00,66.1,62.1,30.05,North,353,2.0,3.0,87,0.00,,,0.00,WeatherCatV1.14B232,2014-09-19 06:28:00,
2014-09-19 02:33:00,66.4,62.7,30.05,NNW,335,3.0,3.0,88,0.00,,,0.00,WeatherCatV1.14B232,2014-09-19 06:33:00,
2014-09-19 02:38:00,66.3,62.0,30.05,North,11,2.0,4.0,86,0.00,,,0.00,WeatherCatV1.14B232,2014-09-19 06:38:00,
2014-09-19 02:43:00,66.2,62.2,30.05,North,351,2.0,4.0,87,0.00,,,0.00,WeatherCatV1.14B232,2014-09-19 06:43:00,
2014-09-19 02:48:00,66.2,61.9,30.06,North,352,3.0,4.0,86,0.00,,,0.00,WeatherCatV1.14B232,2014-09-19 06:48:00,
2014-09-19 02:53:00,66.1,62.1,30.06,North,3,2.0,3.0,87,0.00,,,0.00,WeatherCatV1.14B232,2014-09-19 06:53:00,
2014-09-19 02:58:00,66.1,62.1,30.05,North,7,3.0,3.0,87,0.00,,,0.00,WeatherCatV1.14B232,2014-09-19 06:58:00,
2014-09-19 03:03:00,66.1,62.1,30.05,North,359,2.0,3.0,87,0.00,,,0.00,WeatherCatV1.14B232,2014-09-19 07:03:00,
2014-09-19 03:08:00,66.1,62.1,30.06,North,354,2.0,3.0,87,0.00,,,0.00,WeatherCatV1.14B232,2014-09-19 07:08:00,
2014-09-19 03:13:00,66.2,62.2,30.06,North,354,2.0,4.0,87,0.00,,,0.00,WeatherCatV1.14B232,2014-09-19 07:13:00,
2014-09-19 03:18:00,66.2,62.2,30.06,North,0,3.0,4.0,87,0.00,,,0.00,WeatherCatV1.14B232,2014-09-19 07:18:00,
2014-09-19 03:23:00,66.4,62.7,30.06,NNW,348,3.0,3.0,88,0.00,,,0.00,WeatherCatV1.14B232,2014-09-19 07:23:00,
2014-09-19 03:28:00,66.5,63.2,30.06,North,350,2.0,4.0,89,0.00,,,0.00,WeatherCatV1.14B232,2014-09-19 07:28:00,
2014-09-19 03:33:00,66.6,63.2,30.06,North,354,2.0,5.0,89,0.00,,,0.00,WeatherCatV1.14B232,2014-09-19 07:33:00,
2014-09-19 03:38:00,66.5,63.5,30.06,North,2,3.0,4.0,90,0.00,,,0.00,WeatherCatV1.14B232,2014-09-19 07:38:00,
2014-09-19 03:43:00,66.6,63.9,30.06,North,1,4.0,5.0,91,0.00,,,0.00,WeatherCatV1.14B232,2014-09-19 07:43:00,
2014-09-19 03:48:00,66.6,63.9,30.05,NNE,23,4.0,5.0,91,0.00,,,0.00,WeatherCatV1.14B232,2014-09-19 07:48:00,
2014-09-19 03:53:00,66.5,63.8,30.06,NNW,346,3.0,5.0,91,0.00,,,0.00,WeatherCatV1.14B232,2014-09-19 07:53:00,
2014-09-19 03:58:00,66.5,63.8,30.05,North,10,3.0,5.0,91,0.00,,,0.00,WeatherCatV1.14B232,2014-09-19 07:58:00,
2014-09-19 04:03:00,66.4,63.7,30.05,NNE,17,4.0,5.0,91,0.00,,,0.00,WeatherCatV1.14B232,2014-09-19 08:03:00,
2014-09-19 04:08:00,66.3,63.6,30.06,North,0,4.0,5.0,91,0.00,,,0.00,WeatherCatV1.14B232,2014-09-19 08:08:00,
2014-09-19 04:48:00,67.0,64.3,30.07,NNE,13,3.0,4.0,91,0.00,,,0.00,WeatherCatV1.14B232,2014-09-19 08:48:00,
2014-09-19 04:53:00,67.1,64.4,30.07,North,4,3.0,5.0,91,0.00,,,0.00,WeatherCatV1.14B232,2014-09-19 08:53:00,
2014-09-19 04:58:00,67.2,64.2,30.07,NNE,20,3.0,4.0,90,0.00,,,0.00,WeatherCatV1.14B232,2014-09-19 08:58:00,
2014-09-19 05:03:00,67.2,64.2,30.07,NNE,14,3.0,5.0,90,0.00,,,0.00,WeatherCatV1.14B232,2014-09-19 09:03:00,
2014-09-19 05:10:00,67.2,64.2,30.07,NNE,25,3.0,5.0,90,0.00,,,0.00,WeatherCatV1.14B232,2014-09-19 09:10:00,
2014-09-19 05:15:00,67.3,64.6,30.08,NNE,15,3.0,4.0,91,0.00,,,0.00,WeatherCatV1.14B232,2014-09-19 09:15:00,
2014-09-19 05:20:00,67.4,64.7,30.08,NNE,13,3.0,4.0,91,0.00,,,0.00,WeatherCatV1.14B232,2014-09-19 09:20:00,
2014-09-19 05:25:00,67.4,64.4,30.08,NNE,18,3.0,4.0,90,0.00,,,0.00,WeatherCatV1.14B232,2014-09-19 09:25:00,
2014-09-19 05:30:00,67.3,64.3,30.08,NNE,17,3.0,4.0,90,0.00,,,0.00,WeatherCatV1.14B232,2014-09-19 09:30:00,
2014-09-19 05:35:00,67.2,64.2,30.08,NNE,15,3.0,4.0,90,0.00,,,0.00,WeatherCatV1.14B232,2014-09-19 09:35:00,
2014-09-19 05:40:00,67.1,64.4,30.08,NNE,16,4.0,5.0,91,0.00,,,0.00,WeatherCatV1.14B232,2014-09-19 09:40:00,
2014-09-19 05:45:00,67.1,64.4,30.08,NNE,16,3.0,4.0,91,0.00,,,0.00,WeatherCatV1.14B232,2014-09-19 09:45:00,
2014-09-19 05:50:00,67.1,64.4,30.08,NNE,17,3.0,3.0,91,0.00,,,0.00,WeatherCatV1.14B232,2014-09-19 09:50:00,
2014-09-19 05:55:00,67.0,64.3,30.08,NNE,20,3.0,5.0,91,0.00,,,0.00,WeatherCatV1.14B232,2014-09-19 09:55:00,
2014-09-19 06:00:00,67.0,64.3,30.08,NNE,20,3.0,5.0,91,0.00,,,0.00,WeatherCatV1.14B232,2014-09-19 10:00:00,
2014-09-19 06:05:00,67.0,64.3,30.08,NNE,20,4.0,5.0,91,0.00,,,0.00,WeatherCatV1.14B232,2014-09-19 10:05:00,
2014-09-19 06:10:00,67.1,64.4,30.08,NNE,16,4.0,6.0,91,0.00,,,0.00,WeatherCatV1.14B232,2014-09-19 10:10:00,
2014-09-19 06:15:00,67.1,64.4,30.09,North,9,4.0,4.0,91,0.00,,,0.00,WeatherCatV1.14B232,2014-09-19 10:15:00,
2014-09-19 06:26:00,66.9,63.9,30.09,North,0,4.0,5.0,90,0.00,,,0.00,WeatherCatV1.14B232,2014-09-19 10:26:00,
2014-09-19 06:31:00,66.5,63.8,30.09,NNE,20,4.0,6.0,91,0.00,,,0.00,WeatherCatV1.14B232,2014-09-19 10:31:00,
2014-09-19 06:36:00,66.4,64.0,30.09,NNE,20,5.0,6.0,92,0.00,,,0.00,WeatherCatV1.14B232,2014-09-19 10:36:00,
2014-09-19 06:41:00,66.4,64.0,30.09,North,357,6.0,6.0,92,0.00,,,0.00,WeatherCatV1.14B232,2014-09-19 10:41:00,
2014-09-19 06:46:00,66.5,64.1,30.09,NNE,15,4.0,6.0,92,0.00,,,0.00,WeatherCatV1.14B232,2014-09-19 10:46:00,
2014-09-19 06:49:00,66.6,64.2,30.09,NNE,14,5.0,6.0,92,0.00,,,0.00,WeatherCatV1.14B232,2014-09-19 10:49:00,
2014-09-19 06:54:00,66.7,64.0,30.09,North,358,3.0,7.0,91,0.00,,,0.00,WeatherCatV1.14B232,2014-09-19 10:54:00,
2014-09-19 06:59:00,66.7,64.0,30.10,North,356,4.0,6.0,91,0.00,,,0.00,WeatherCatV1.14B232,2014-09-19 10:59:00,
2014-09-19 07:04:00,66.8,64.1,30.10,North,359,5.0,6.0,91,0.00,,,0.00,WeatherCatV1.14B232,2014-09-19 11:04:00,
2014-09-19 07:09:00,66.8,64.1,30.10,North,0,4.0,5.0,91,0.00,,,0.00,WeatherCatV1.14B232,2014-09-19 11:09:00,
2014-09-19 07:14:00,66.6,63.9,30.10,North,356,4.0,6.0,91,0.00,,,0.00,WeatherCatV1.14B232,2014-09-19 11:14:00,
2014-09-19 07:19:00,66.8,64.4,30.10,North,352,5.0,7.0,92,0.00,,,0.00,WeatherCatV1.14B232,2014-09-19 11:19:00,
2014-09-19 07:24:00,67.1,64.4,30.11,NE,41,5.0,6.0,91,0.00,,,0.00,WeatherCatV1.14B232,2014-09-19 11:24:00,
2014-09-19 07:29:00,67.3,64.6,30.11,NNE,22,5.0,5.0,91,0.00,,,0.00,WeatherCatV1.14B232,2014-09-19 11:29:00,
2014-09-19 07:34:00,67.5,64.8,30.11,North,3,5.0,8.0,91,0.00,,,0.00,WeatherCatV1.14B232,2014-09-19 11:34:00,
2014-09-19 07:39:00,67.6,64.9,30.11,NNE,27,6.0,6.0,91,0.00,,,0.00,WeatherCatV1.14B232,2014-09-19 11:39:00,
2014-09-19 07:44:00,67.7,65.0,30.12,North,354,6.0,7.0,91,0.00,,,0.00,WeatherCatV1.14B232,2014-09-19 11:44:00,
2014-09-19 07:49:00,67.9,64.9,30.12,NNE,12,3.0,5.0,90,0.00,,,0.00,WeatherCatV1.14B232,2014-09-19 11:49:00,
2014-09-19 07:54:00,68.0,65.0,30.12,North,11,4.0,5.0,90,0.00,,,0.00,WeatherCatV1.14B232,2014-09-19 11:54:00,
2014-09-19 07:59:00,68.1,65.0,30.13,NNE,25,5.0,7.0,90,0.00,,,0.00,WeatherCatV1.14B232,2014-09-19 11:59:00,
2014-09-19 08:04:00,68.5,65.4,30.13,North,11,4.0,6.0,90,0.00,,,0.00,WeatherCatV1.14B232,2014-09-19 12:04:00,
2014-09-19 08:09:00,68.8,65.4,30.13,NNE,27,4.0,5.0,89,0.00,,,0.00,WeatherCatV1.14B232,2014-09-19 12:09:00,
2014-09-19 08:14:00,69.3,65.6,30.13,NE,41,5.0,6.0,88,0.00,,,0.00,WeatherCatV1.14B232,2014-09-19 12:14:00,
2014-09-19 08:19:00,69.6,65.6,30.13,NE,37,2.0,6.0,87,0.00,,,0.00,WeatherCatV1.14B232,2014-09-19 12:19:00,
2014-09-19 08:24:00,70.1,66.0,30.14,NE,48,5.0,5.0,87,0.00,,,0.00,WeatherCatV1.14B232,2014-09-19 12:24:00,
2014-09-19 08:29:00,70.6,66.2,30.14,NNE,27,1.0,4.0,86,0.00,,,0.00,WeatherCatV1.14B232,2014-09-19 12:29:00,
2014-09-19 08:34:00,70.8,66.1,30.14,ENE,57,4.0,4.0,85,0.00,,,0.00,WeatherCatV1.14B232,2014-09-19 12:34:00,
2014-09-19 08:39:00,71.1,66.0,30.14,ENE,63,2.0,5.0,84,0.00,,,0.00,WeatherCatV1.14B232,2014-09-19 12:39:00,
2014-09-19 08:44:00,71.6,66.2,30.14,ENE,58,4.0,6.0,83,0.00,,,0.00,WeatherCatV1.14B232,2014-09-19 12:44:00,
2014-09-19 08:49:00,71.9,65.7,30.14,NE,46,3.0,5.0,81,0.00,,,0.00,WeatherCatV1.14B232,2014-09-19 12:49:00,
2014-09-19 08:54:00,72.3,65.4,30.14,ENE,76,1.0,9.0,79,0.00,,,0.00,WeatherCatV1.14B232,2014-09-19 12:54:00,
2014-09-19 08:59:00,72.6,66.1,30.14,ENE,72,4.0,6.0,80,0.00,,,0.00,WeatherCatV1.14B232,2014-09-19 12:59:00,
2014-09-19 09:04:00,72.8,65.9,30.14,NE,38,3.0,8.0,79,0.00,,,0.00,WeatherCatV1.14B232,2014-09-19 13:04:00,
2014-09-19 09:09:00,73.2,65.9,30.14,NE,34,0.0,4.0,78,0.00,,,0.00,WeatherCatV1.14B232,2014-09-19 13:09:00,
2014-09-19 09:14:00,73.4,65.7,30.14,ENE,77,2.0,5.0,77,0.00,,,0.00,WeatherCatV1.14B232,2014-09-19 13:14:00,
2014-09-19 09:19:00,73.7,65.7,30.14,ENE,59,4.0,10.0,76,0.00,,,0.00,WeatherCatV1.14B232,2014-09-19 13:19:00,
2014-09-19 09:24:00,73.9,65.8,30.14,ENE,66,3.0,7.0,76,0.00,,,0.00,WeatherCatV1.14B232,2014-09-19 13:24:00,
2014-09-19 09:29:00,74.1,65.7,30.14,NE,54,4.0,4.0,75,0.00,,,0.00,WeatherCatV1.14B232,2014-09-19 13:29:00,
2014-09-19 09:34:00,74.2,65.0,30.14,ENE,63,5.0,10.0,73,0.00,,,0.00,WeatherCatV1.14B232,2014-09-19 13:34:00,
2014-09-19 09:39:00,74.4,65.6,30.14,ENE,69,7.0,7.0,74,0.00,,,0.00,WeatherCatV1.14B232,2014-09-19 13:39:00,
2014-09-19 09:44:00,74.6,65.4,30.14,ENE,60,6.0,7.0,73,0.00,,,0.00,WeatherCatV1.14B232,2014-09-19 13:44:00,
2014-09-19 09:49:00,74.7,65.5,30.14,East,93,3.0,9.0,73,0.00,,,0.00,WeatherCatV1.14B232,2014-09-19 13:49:00,
2014-09-19 09:54:00,75.0,65.7,30.14,ENE,72,1.0,7.0,73,0.00,,,0.00,WeatherCatV1.14B232,2014-09-19 13:54:00,
2014-09-19 09:59:00,75.1,65.8,30.14,ENE,69,2.0,10.0,73,0.00,,,0.00,WeatherCatV1.14B232,2014-09-19 13:59:00,
2014-09-19 10:04:00,75.2,66.3,30.14,ENE,73,3.0,8.0,74,0.00,,,0.00,WeatherCatV1.14B232,2014-09-19 14:04:00,
2014-09-19 10:09:00,75.3,66.0,30.15,ENE,76,5.0,6.0,73,0.00,,,0.00,WeatherCatV1.14B232,2014-09-19 14:09:00,
2014-09-19 10:14:00,75.3,66.8,30.15,ENE,76,7.0,7.0,75,0.00,,,0.00,WeatherCatV1.14B232,2014-09-19 14:14:00,
2014-09-19 10:19:00,75.4,66.9,30.15,ENE,75,3.0,5.0,75,0.00,,,0.00,WeatherCatV1.14B232,2014-09-19 14:19:00,
2014-09-19 10:24:00,75.4,66.5,30.15,ENE,71,4.0,6.0,74,0.00,,,0.00,WeatherCatV1.14B232,2014-09-19 14:24:00,
2014-09-19 10:29:00,75.7,67.2,30.15,ENE,58,3.0,5.0,75,0.00,,,0.00,WeatherCatV1.14B232,2014-09-19 14:29:00,
2014-09-19 10:34:00,76.0,67.5,30.15,ENE,73,2.0,4.0,75,0.00,,,0.00,WeatherCatV1.14B232,2014-09-19 14:34:00,
2014-09-19 10:39:00,76.1,66.4,30.15,ENE,77,3.0,7.0,72,0.00,,,0.00,WeatherCatV1.14B232,2014-09-19 14:39:00,
2014-09-19 10:44:00,75.9,65.8,30.15,ENE,64,4.0,8.0,71,0.00,,,0.00,WeatherCatV1.14B232,2014-09-19 14:44:00,
2014-09-19 10:49:00,75.8,65.3,30.15,East,98,5.0,7.0,70,0.00,,,0.00,WeatherCatV1.14B232,2014-09-19 14:49:00,
2014-09-19 10:54:00,76.0,65.5,30.15,East,83,3.0,7.0,70,0.00,,,0.00,WeatherCatV1.14B232,2014-09-19 14:54:00,
2014-09-19 10:59:00,76.2,65.7,30.16,ENE,76,6.0,7.0,70,0.00,,,0.00,WeatherCatV1.14B232,2014-09-19 14:59:00,
2014-09-19 11:04:00,76.3,66.2,30.15,NE,52,1.0,5.0,71,0.00,,,0.00,WeatherCatV1.14B232,2014-09-19 15:04:00,
2014-09-19 11:09:00,76.4,66.7,30.16,East,79,3.0,4.0,72,0.00,,,0.00,WeatherCatV1.14B232,2014-09-19 15:09:00,
2014-09-19 11:14:00,76.3,65.8,30.16,NNE,27,4.0,6.0,70,0.00,,,0.00,WeatherCatV1.14B232,2014-09-19 15:14:00,
2014-09-19 11:19:00,76.0,65.5,30.16,ENE,68,2.0,8.0,70,0.00,,,0.00,WeatherCatV1.14B232,2014-09-19 15:19:00,
2014-09-19 11:24:00,76.0,66.7,30.15,East,101,6.0,6.0,73,0.00,,,0.00,WeatherCatV1.14B232,2014-09-19 15:24:00,
2014-09-19 11:29:00,76.1,66.4,30.16,ENE,71,4.0,7.0,72,0.00,,,0.00,WeatherCatV1.14B232,2014-09-19 15:29:00,
2014-09-19 11:34:00,76.5,67.2,30.16,East,82,3.0,7.0,73,0.00,,,0.00,WeatherCatV1.14B232,2014-09-19 15:34:00,
2014-09-19 11:39:00,76.5,66.4,30.16,ENE,61,3.0,12.0,71,0.00,,,0.00,WeatherCatV1.14B232,2014-09-19 15:39:00,
2014-09-19 11:44:00,76.6,66.5,30.16,East,80,2.0,4.0,71,0.00,,,0.00,WeatherCatV1.14B232,2014-09-19 15:44:00,
2014-09-19 11:49:00,76.9,66.3,30.16,SE,143,2.0,5.0,70,0.00,,,0.00,WeatherCatV1.14B232,2014-09-19 15:49:00,
2014-09-19 11:54:00,76.6,66.5,30.16,NE,43,2.0,7.0,71,0.00,,,0.00,WeatherCatV1.14B232,2014-09-19 15:54:00,
2014-09-19 11:59:00,76.4,66.3,30.16,ENE,72,9.0,13.0,71,0.00,,,0.00,WeatherCatV1.14B232,2014-09-19 15:59:00,
2014-09-19 12:04:00,76.2,66.1,30.16,ENE,72,4.0,12.0,71,0.00,,,0.00,WeatherCatV1.14B232,2014-09-19 16:04:00,
2014-09-19 12:09:00,76.4,66.3,30.16,SE,144,2.0,2.0,71,0.00,,,0.00,WeatherCatV1.14B232,2014-09-19 16:09:00,
2014-09-19 12:14:00,76.8,67.1,30.16,ENE,61,1.0,4.0,72,0.00,,,0.00,WeatherCatV1.14B232,2014-09-19 16:14:00,
2014-09-19 12:19:00,76.7,65.7,30.16,ENE,65,6.0,8.0,69,0.00,,,0.00,WeatherCatV1.14B232,2014-09-19 16:19:00,
2014-09-19 12:24:00,76.7,66.6,30.16,NE,56,5.0,8.0,71,0.00,,,0.00,WeatherCatV1.14B232,2014-09-19 16:24:00,
2014-09-19 12:29:00,76.7,66.2,30.16,ENE,71,12.0,13.0,70,0.00,,,0.00,WeatherCatV1.14B232,2014-09-19 16:29:00,
2014-09-19 12:34:00,76.4,65.5,30.16,ENE,62,4.0,16.0,69,0.00,,,0.00,WeatherCatV1.14B232,2014-09-19 16:34:00,
2014-09-19 12:39:00,76.4,65.0,30.16,ENE,64,5.0,9.0,68,0.00,,,0.00,WeatherCatV1.14B232,2014-09-19 16:39:00,
2014-09-19 12:44:00,76.7,65.7,30.16,NE,56,8.0,11.0,69,0.00,,,0.00,WeatherCatV1.14B232,2014-09-19 16:44:00,
2014-09-19 12:49:00,76.7,64.9,30.16,NNE,30,7.0,12.0,67,0.00,,,0.00,WeatherCatV1.14B232,2014-09-19 16:49:00,
2014-09-19 12:54:00,76.7,64.5,30.16,ENE,60,12.0,12.0,66,0.00,,,0.00,WeatherCatV1.14B232,2014-09-19 16:54:00,
2014-09-19 12:59:00,76.6,64.8,30.16,East,79,6.0,9.0,67,0.00,,,0.00,WeatherCatV1.14B232,2014-09-19 16:59:00,
2014-09-19 13:04:00,76.9,65.5,30.16,SSE,148,1.0,4.0,68,0.00,,,0.00,WeatherCatV1.14B232,2014-09-19 17:04:00,
2014-09-19 13:09:00,77.2,63.6,30.16,East,85,5.0,13.0,63,0.00,,,0.00,WeatherCatV1.14B232,2014-09-19 17:09:00,
2014-09-19 13:14:00,77.3,63.2,30.15,ENE,70,6.0,11.0,62,0.00,,,0.00,WeatherCatV1.14B232,2014-09-19 17:14:00,
2014-09-19 13:19:00,77.4,63.8,30.15,ENE,75,5.0,7.0,63,0.00,,,0.00,WeatherCatV1.14B232,2014-09-19 17:19:00,
2014-09-19 13:24:00,77.2,62.2,30.15,ENE,70,3.0,16.0,60,0.00,,,0.00,WeatherCatV1.14B232,2014-09-19 17:24:00,
2014-09-19 13:29:00,77.4,63.3,30.15,ENE,72,6.0,7.0,62,0.00,,,0.00,WeatherCatV1.14B232,2014-09-19 17:29:00,
2014-09-19 13:34:00,77.5,65.7,30.15,ENE,75,2.0,4.0,67,0.00,,,0.00,WeatherCatV1.14B232,2014-09-19 17:34:00,
2014-09-19 13:39:00,77.6,65.8,30.16,NE,55,3.0,7.0,67,0.00,,,0.00,WeatherCatV1.14B232,2014-09-19 17:39:00,
2014-09-19 13:44:00,77.8,65.5,30.16,East,79,1.0,2.0,66,0.00,,,0.00,WeatherCatV1.14B232,2014-09-19 17:44:00,
2014-09-19 13:49:00,77.7,65.4,30.16,ENE,61,5.0,11.0,66,0.00,,,0.00,WeatherCatV1.14B232,2014-09-19 17:49:00,
2014-09-19 13:54:00,77.7,66.3,30.16,ENE,65,4.0,5.0,68,0.00,,,0.00,WeatherCatV1.14B232,2014-09-19 17:54:00,
2014-09-19 13:59:00,77.5,66.9,30.15,NE,52,2.0,7.0,70,0.00,,,0.00,WeatherCatV1.14B232,2014-09-19 17:59:00,
2014-09-19 14:04:00,77.4,66.0,30.15,NE,38,4.0,10.0,68,0.00,,,0.00,WeatherCatV1.14B232,2014-09-19 18:04:00,
2014-09-19 14:09:00,77.4,66.0,30.15,SSE,168,1.0,3.0,68,0.00,,,0.00,WeatherCatV1.14B232,2014-09-19 18:09:00,
2014-09-19 14:14:00,77.1,66.1,30.15,SSE,162,1.0,6.0,69,0.00,,,0.00,WeatherCatV1.14B232,2014-09-19 18:14:00,
2014-09-19 14:19:00,77.2,67.0,30.15,ESE,105,2.0,3.0,71,0.00,,,0.00,WeatherCatV1.14B232,2014-09-19 18:19:00,
2014-09-19 14:24:00,77.2,67.9,30.15,ENE,66,4.0,5.0,73,0.00,,,0.00,WeatherCatV1.14B232,2014-09-19 18:24:00,
2014-09-19 14:29:00,77.2,67.5,30.15,East,87,4.0,7.0,72,0.00,,,0.00,WeatherCatV1.14B232,2014-09-19 18:29:00,
2014-09-19 14:34:00,77.1,67.0,30.15,ENE,61,4.0,8.0,71,0.00,,,0.00,WeatherCatV1.14B232,2014-09-19 18:34:00,
2014-09-19 14:39:00,77.0,66.9,30.15,ENE,70,10.0,10.0,71,0.00,,,0.00,WeatherCatV1.14B232,2014-09-19 18:39:00,
2014-09-19 14:44:00,76.8,67.1,30.15,ENE,65,1.0,5.0,72,0.00,,,0.00,WeatherCatV1.14B232,2014-09-19 18:44:00,
2014-09-19 14:49:00,77.1,67.4,30.15,ESE,103,2.0,3.0,72,0.00,,,0.00,WeatherCatV1.14B232,2014-09-19 18:49:00,
2014-09-19 14:54:00,77.5,67.3,30.15,ENE,59,2.0,6.0,71,0.00,,,0.00,WeatherCatV1.14B232,2014-09-19 18:54:00,